This is the latest recevied weather packets stored in our database for station/object DC9VQ-13. If no packets are shown the sender has not sent any weather packets the latest 10 day(s).
| Time | Temp. | Humidity | Pressure | Rain* | Wind** | Luminosity | Snow |
|---|---|---|---|---|---|---|---|
| 1787949211 | 20° C | 70% | 1013.4 hPa | 0 mm | - | - | - |
| 1787948609 | 20° C | 70% | 1013.1 hPa | 0 mm | - | - | - |
| 1787948007 | 20.56° C | 69% | 1012.9 hPa | 0 mm | - | - | - |
| 1787947405 | 20.56° C | 68% | 1012.8 hPa | 0 mm | - | - | - |
| 1787946803 | 20.56° C | 67% | 1012.9 hPa | 0 mm | - | - | - |
| 1787946201 | 21.11° C | 67% | 1012.9 hPa | 0 mm | - | - | - |
| 1787945599 | 21.11° C | 67% | 1012.8 hPa | 0 mm | - | - | - |
| 1787944997 | 21.67° C | 67% | 1012.6 hPa | 0 mm | - | - | - |
| 1787944395 | 21.67° C | 68% | 1012.5 hPa | 0 mm | - | - | - |
| 1787943793 | 21.67° C | 73% | 1012.5 hPa | 0 mm | - | - | - |
| 1787943191 | 22.22° C | 73% | 1012.5 hPa | 0 mm | - | - | - |
| 1787942589 | 22.22° C | 72% | 1012.3 hPa | 0 mm | - | - | - |
| 1787941987 | 22.78° C | 72% | 1012.4 hPa | 0 mm | - | - | - |
| 1787941385 | 22.78° C | 70% | 1012.2 hPa | 0 mm | - | - | - |
| 1787940783 | 23.33° C | 69% | 1012 hPa | 0 mm | - | - | - |
| 1787940181 | 23.89° C | 68% | 1011.9 hPa | 0 mm | - | - | - |
| 1787939580 | 23.89° C | 67% | 1011.7 hPa | 0 mm | - | - | - |
| 1787938977 | 24.44° C | 65% | 1011.5 hPa | 0 mm | - | - | - |
| 1787938375 | 24.44° C | 64% | 1011.4 hPa | 0 mm | - | - | - |
| 1787937774 | 24.44° C | 64% | 1011.5 hPa | 0 mm | - | - | - |
| 1787937171 | 24.44° C | 66% | 1011.5 hPa | 0 mm | - | - | - |
| 1787936569 | 24.44° C | 66% | 1011.5 hPa | 0 mm | - | - | - |
| 1787935966 | 24.44° C | 67% | 1011.3 hPa | 0 mm | - | - | - |
| 1787935365 | 23.89° C | 67% | 1011.3 hPa | 0 mm | - | - | - |
| 1787934763 | 23.89° C | 67% | 1011.2 hPa | 0 mm | - | - | - |
* Rain latest hour (hover to see other rain measurements)
** Current wind speed in m/s (hover to see current wind gust speed)